IRIDIUM 97

Last updated on Wed Nov 29 2017 00:19:03 GMT+0000 (Coordinated Universal Time)

1 27450U 02031A 17332.19248970 .00000019 00000-0 -38540-6 0 9997 2 27450 86.3985 250.3250 0001908 81.5612 278.5800 14.34214344813739
UTC large
Height (km)
Speed (km/s)
/
Latitude / Longitude
Inclination (degrees)
Orbital Period (minutes)
Azimuth
Elevation
Range (km)
Doppler Factor

Next 0 passes for location: London (51.5072 / 0.1276)

Sorry there are no passes over London.